Weather History for Pensacola, FL

Change the Weather History Date:

Monday, December 10, 2012

  Actual Average Record
Temperature  
Mean Temperature 67 °F 54 °F  
Max Temperature 78 °F 64 °F 78 °F (1971)
Min Temperature 56 °F 45 °F 25 °F (1995)
Degree Days  
Heating Degree Days 0 11  
Month to date heating degree days 1 101  
Since 1 July heating degree days 213 313  
Cooling Degree Days 2 0  
Month to date cooling degree days 16 7  
Year to date cooling degree days 3045 2603  
Growing Degree Days 18 (Base 50)    
Moisture  
Dew Point 64 °F    
Average Humidity 79    
Maximum Humidity 90    
Minimum Humidity 68    
Precipitation  
Precipitation T in 0.15 in 2.48 in (2008)
Month to date precipitation 0.14 1.58  
Year to date precipitation 64.68 62.30  
Snow  
Snow 0.00 in 0.00 in 0.00 in (2002)
Month to date snowfall 0.0 0.0  
Since 1 July snowfall 0.0 0.0  
Snow Depth 0.00 in    
Sea Level Pressure  
Sea Level Pressure 29.85 in    
Wind  
Wind Speed 13 mph (SW)    
Max Wind Speed 23 mph    
Max Gust Speed 30 mph    
Visibility 10 miles    
Events Rain    
T = Trace of Precipitation, MM = Missing Value Source: NWS Daily Summary

Daily Weather History Graph

Daily Weather History Graph

Search for Another Location

Airport:

Trip Planner

Search our weather history database for the weather conditions in past years. The results will help you decide how hot, cold, wet, or windy it might be!

Date:

Astronomy

Dec. 10, 2012 Rise Set
Actual Time 6:35 AM CST 4:48 PM CST
Civil Twilight 6:08 AM CST 5:14 PM CST
Nautical Twilight 5:38 AM CST 5:44 PM CST
Astronomical Twilight 5:09 AM CST 6:14 PM CST
Moon 3:25 AM CST (12/10) 2:31 PM CST (12/10)
Length of Visible Light 11h 06m
Length of Day
10h 13m
Waning Crescent, 10% of the Moon is Illuminated
Dec 10
Waning Crescent
Dec 13
New
Dec 19
First Quarter
Dec 28
Full
Jan 4
Last Quarter

Hourly Weather History & Observations

Time (CST) Temp. Dew Point Humidity Pressure Visibility Wind Dir Wind Speed Gust Speed Precip Events Conditions
12:53 AM 70.0 °F 64.9 °F 84% 29.95 in 10.0 mi South 12.7 mph - N/A   Mostly Cloudy
1:53 AM 70.0 °F 66.0 °F 87% 29.93 in 10.0 mi South 12.7 mph - N/A   Clear
2:42 AM 69.8 °F 66.2 °F 88% 29.92 in 10.0 mi South 12.7 mph - N/A   Mostly Cloudy
2:53 AM 70.0 °F 66.0 °F 87% 29.92 in 10.0 mi South 11.5 mph - N/A   Mostly Cloudy
3:18 AM 69.8 °F 66.2 °F 88% 29.91 in 10.0 mi South 11.5 mph - N/A   Scattered Clouds
3:53 AM 70.0 °F 66.0 °F 87% 29.90 in 10.0 mi South 11.5 mph - N/A   Partly Cloudy
4:53 AM 70.0 °F 66.0 °F 87% 29.88 in 10.0 mi South 9.2 mph - N/A   Scattered Clouds
5:53 AM 70.0 °F 66.0 °F 87% 29.86 in 10.0 mi South 12.7 mph - N/A   Mostly Cloudy
6:29 AM 69.8 °F 66.2 °F 88% 29.85 in 10.0 mi South 13.8 mph - N/A   Mostly Cloudy
6:48 AM 69.8 °F 66.2 °F 88% 29.86 in 10.0 mi South 13.8 mph - N/A   Scattered Clouds
6:53 AM 70.0 °F 66.0 °F 87% 29.86 in 10.0 mi South 12.7 mph - N/A   Partly Cloudy
7:53 AM 72.0 °F 66.9 °F 84% 29.87 in 10.0 mi South 11.5 mph - N/A   Partly Cloudy
8:37 AM 73.4 °F 66.2 °F 78% 29.88 in 10.0 mi SSW 11.5 mph - N/A   Mostly Cloudy
8:53 AM 73.0 °F 66.9 °F 81% 29.89 in 10.0 mi SSW 12.7 mph - N/A   Overcast
9:14 AM 73.4 °F 68.0 °F 83% 29.89 in 10.0 mi South 15.0 mph 19.6 mph N/A   Overcast
9:53 AM 75.0 °F 68.0 °F 79% 29.88 in 10.0 mi South 16.1 mph 21.9 mph N/A   Mostly Cloudy
10:53 AM 75.9 °F 68.0 °F 76% 29.86 in 10.0 mi South 15.0 mph - 0.00 in   Mostly Cloudy
11:00 AM 75.2 °F 68.0 °F 78% 29.84 in 10.0 mi South 15.0 mph - N/A   Mostly Cloudy
11:07 AM 75.2 °F 68.0 °F 78% 29.84 in 10.0 mi South 17.3 mph 23.0 mph N/A   Mostly Cloudy
11:53 AM 75.9 °F 68.0 °F 76% 29.82 in 10.0 mi South 21.9 mph 27.6 mph N/A   Mostly Cloudy
12:00 PM 75.2 °F 68.0 °F 78% 29.81 in 10.0 mi South 18.4 mph 27.6 mph N/A   Scattered Clouds
12:53 PM 78.1 °F 68.0 °F 71% 29.81 in 10.0 mi SW 21.9 mph 28.8 mph N/A   Mostly Cloudy
1:02 PM 75.2 °F 68.0 °F 78% 29.80 in 10.0 mi SSW 18.4 mph 27.6 mph N/A   Mostly Cloudy
1:53 PM 77.0 °F 66.0 °F 69% 29.80 in 10.0 mi WSW 20.7 mph 29.9 mph N/A   Mostly Cloudy
2:00 PM 75.2 °F 66.2 °F 73% 29.79 in 10.0 mi WSW 17.3 mph 29.9 mph N/A   Scattered Clouds
2:07 PM 75.2 °F 66.2 °F 73% 29.79 in 10.0 mi WSW 23.0 mph 27.6 mph N/A   Mostly Cloudy
2:53 PM 75.0 °F 66.0 °F 73% 29.79 in 10.0 mi WSW 16.1 mph 20.7 mph N/A   Mostly Cloudy
3:42 PM 75.2 °F 64.4 °F 69% 29.78 in 10.0 mi WSW 16.1 mph 20.7 mph N/A   Scattered Clouds
3:53 PM 73.0 °F 62.1 °F 68% 29.78 in 10.0 mi WSW 16.1 mph - N/A   Partly Cloudy
4:53 PM 69.1 °F 61.0 °F 75% 29.79 in 10.0 mi WSW 11.5 mph - N/A   Clear
5:53 PM 68.0 °F 62.1 °F 81% 29.82 in 10.0 mi West 9.2 mph - N/A   Overcast
6:26 PM 66.2 °F 62.6 °F 88% 29.82 in 10.0 mi West 5.8 mph - N/A   Scattered Clouds
6:53 PM 66.9 °F 63.0 °F 87% 29.83 in 10.0 mi West 8.1 mph - N/A   Mostly Cloudy
7:20 PM 66.2 °F 62.6 °F 88% 29.83 in 10.0 mi WNW 5.8 mph - N/A   Mostly Cloudy
7:34 PM 66.2 °F 62.6 °F 88% 29.84 in 10.0 mi WNW 5.8 mph - N/A   Mostly Cloudy
7:53 PM 66.9 °F 63.0 °F 87% 29.85 in 10.0 mi NW 8.1 mph - N/A   Mostly Cloudy
8:35 PM 66.2 °F 62.6 °F 88% 29.85 in 10.0 mi NW 5.8 mph - N/A   Overcast
8:47 PM 62.6 °F 60.8 °F 94% 29.87 in 10.0 mi NW 17.3 mph 26.5 mph 0.00 in Rain Light Rain
8:53 PM 62.1 °F 59.0 °F 90% 29.88 in 10.0 mi NW 11.5 mph - 0.00 in Rain Light Rain
9:53 PM 59.0 °F 54.0 °F 83% 29.90 in 10.0 mi NNW 13.8 mph - 0.00 in   Overcast
10:53 PM 57.0 °F 53.1 °F 87% 29.91 in 10.0 mi NNW 10.4 mph - N/A   Overcast
11:53 PM 55.9 °F 52.0 °F 87% 29.92 in 10.0 mi North 12.7 mph 19.6 mph N/A   Overcast